[[[{"header":{"parameterUnit":"kt","parameterCategory":2,"dx":1,"dy":1,"la1":30.253999710083008,"la2":30.299108505249023,"lo1":-89.0895004272461,"lo2":-89.04439544677734,"nx":28,"ny":28,"refTime":"2022-10-12T21:00:00:Z","depth":"0","parameterNumber":2,"parameterNumberName":"U-component_of_CURRENTS"},"data":[-0.0955,-0.1012,-0.1032,-0.1121,-0.117,-0.1208,-0.1217,-0.1206,-0.1266,-0.1432,-0.1638,-0.1836,-0.21,-0.2146,-0.2014,-0.184,-0.1652,-0.1579,-0.1461,-0.1573,-0.1561,-0.1549,-0.1581,-0.1663,-0.1663,-0.1359,-0.1357,-0.1355,-0.0925,-0.0949,-0.1013,-0.1099,-0.1157,-0.1179,-0.1223,-0.1224,-0.1267,-0.1399,-0.1478,-0.1732,-0.1804,-0.1831,-0.1863,-0.1717,-0.1583,-0.1587,-0.1508,-0.1448,-0.1543,-0.1579,-0.1662,-0.1662,-0.1662,-0.1662,-0.1662,-0.1662,-0.087,-0.0911,-0.098,-0.1055,-0.1115,-0.1163,-0.1186,-0.124,-0.1295,-0.1382,-0.1436,-0.1545,-0.1656,-0.1664,-0.1584,-0.1554,-0.1438,-0.1481,-0.1457,-0.1379,-0.1355,-0.1475,-0.1494,-0.1493,-0.1492,-0.1492,-0.1491,0,-0.0848,-0.0872,-0.0936,-0.102,-0.1075,-0.1133,-0.1192,-0.1219,-0.1284,-0.1336,-0.141,-0.146,-0.1505,-0.1546,-0.1504,-0.1443,-0.1325,-0.1351,-0.1338,-0.1412,-0.1369,-0.1307,-0.1372,-0.1386,-0.1384,-0.1383,-0.1382,-0.1382,-0.0805,-0.0849,-0.0948,-0.0994,-0.104,-0.1102,-0.1147,-0.1205,-0.1253,-0.134,-0.137,-0.141,-0.1463,-0.1421,-0.1401,-0.1345,-0.125,-0.1318,-0.1311,-0.1334,-0.1305,-0.1236,-0.1192,-0.1366,-0.1368,-0.1369,-0.1371,0,-0.0778,-0.0836,-0.0924,-0.1017,-0.1042,-0.1091,-0.117,-0.1215,-0.1266,-0.1331,-0.1346,-0.1414,-0.1415,-0.1389,-0.1318,-0.1287,-0.1226,-0.1212,-0.1299,-0.1296,-0.1308,-0.1295,-0.1221,-0.117,-0.1209,-0.121,-0.1211,0,-0.0766,-0.0829,-0.0914,-0.0966,-0.1033,-0.1104,-0.1167,-0.1226,-0.1286,-0.1336,-0.1375,-0.1409,-0.1376,-0.1363,-0.1308,-0.127,-0.124,-0.1218,-0.1202,-0.1257,-0.1266,-0.1247,-0.1233,-0.1147,-0.1148,-0.1148,-0.1148,0,-0.0721,-0.0849,-0.0919,-0.0967,-0.1089,-0.112,-0.1172,-0.1257,-0.1301,-0.1357,-0.1389,-0.1388,-0.1385,-0.1333,-0.13,-0.1291,-0.1239,-0.121,-0.1204,-0.1207,-0.1236,-0.1244,-0.1256,-0.1148,-0.1149,-0.1149,-0.1149,0,-0.0733,-0.0809,-0.0907,-0.1012,-0.1052,-0.1103,-0.1209,-0.1261,-0.1329,-0.136,-0.138,-0.1391,-0.138,-0.1358,-0.1304,-0.1318,-0.1268,-0.1237,-0.1234,-0.126,-0.1241,-0.1278,-0.1299,-0.13,-0.12,-0.12,-0.12,0,-0.0663,-0.0788,-0.0869,-0.0969,-0.1053,-0.114,-0.1183,-0.1262,-0.132,-0.1367,-0.1359,-0.1369,-0.1357,-0.1351,-0.1329,-0.1293,-0.1265,-0.1287,-0.1201,-0.1199,-0.1248,-0.1259,-0.1323,-0.1303,-0.1207,-0.1206,-0.1205,0,-0.0641,-0.0804,-0.0825,-0.0891,-0.1042,-0.1109,-0.1161,-0.1264,-0.1302,-0.1344,-0.1378,-0.1348,-0.1356,-0.1334,-0.1315,-0.1291,-0.1275,-0.1267,-0.1264,-0.1261,-0.1213,-0.1261,-0.1262,-0.1246,-0.1245,-0.1244,-0.121,0,-0.0669,-0.0763,-0.0795,-0.0963,-0.1025,-0.1098,-0.1211,-0.1252,-0.1297,-0.1352,-0.1354,-0.1333,-0.1323,-0.131,-0.1294,-0.1273,-0.1263,-0.1241,-0.1224,-0.123,-0.1214,-0.1211,-0.124,-0.124,-0.1239,-0.1238,0,0,-0.0621,-0.0765,-0.0882,-0.0963,-0.1032,-0.1141,-0.1209,-0.1252,-0.1339,-0.1356,-0.1357,-0.1336,-0.1303,-0.1278,-0.1286,-0.1261,-0.1242,-0.1251,-0.1228,-0.1227,-0.1226,-0.1212,-0.1209,-0.1237,-0.1237,-0.1237,-0.1236,0,-0.0681,-0.0792,-0.0865,-0.095,-0.1088,-0.116,-0.1184,-0.1306,-0.1331,-0.1356,-0.1352,-0.1337,-0.1297,-0.1284,-0.1264,-0.1255,-0.122,-0.1238,-0.1257,-0.1224,-0.1224,-0.1223,-0.121,-0.1208,-0.1235,-0.1235,-0.1235,0,-0.0715,-0.0839,-0.0894,-0.1065,-0.1137,-0.1214,-0.1264,-0.1329,-0.1373,-0.1353,-0.1364,-0.1344,-0.1303,-0.1278,-0.1259,-0.1249,-0.1201,-0.1209,-0.1211,-0.1214,-0.1179,-0.1179,-0.1179,-0.1177,-0.1177,-0.1177,0,0,-0.0755,-0.085,-0.1024,-0.1093,-0.1144,-0.1246,-0.1283,-0.1336,-0.1373,-0.1373,-0.1367,-0.1339,-0.131,-0.1286,-0.1258,-0.1219,-0.1198,-0.1204,-0.1207,-0.1209,-0.1214,-0.1179,-0.1179,-0.1177,-0.1177,-0.1177,0,0,-0.0762,-0.0975,-0.1041,-0.1137,-0.1234,-0.1345,-0.1351,-0.1399,-0.1394,-0.1381,-0.1366,-0.1356,-0.1323,-0.1291,-0.1299,-0.125,-0.1236,-0.1233,-0.1274,-0.1277,-0.1279,-0.1296,-0.1277,0,0,0,0,0,-0.0926,-0.0962,-0.1021,-0.1059,-0.1237,-0.1334,-0.1347,-0.1403,-0.141,-0.1413,-0.1398,-0.1373,-0.13,-0.1306,-0.1292,-0.1282,-0.1179,-0.1179,-0.1179,-0.1223,-0.1226,-0.1229,0,0,0,0,0,0,-0.0942,-0.0989,-0.1019,-0.1145,-0.1186,-0.1332,-0.1357,-0.137,-0.1411,-0.1414,-0.1381,-0.1372,-0.1354,-0.131,-0.1298,-0.129,-0.1281,-0.1179,-0.1179,-0.1179,-0.1224,-0.1227,-0.1229,0,0,0,0,0,-0.0955,-0.0993,-0.1282,-0.1141,-0.1176,-0.127,-0.1355,-0.1366,-0.138,-0.138,-0.1375,-0.1425,-0.1355,-0.1342,-0.1302,-0.1297,-0.1289,-0.1285,-0.1179,-0.1179,-0.1179,-0.1225,0,0,0,0,0,0,-0.0964,-0.0963,-0.1288,-0.1298,-0.1142,-0.1259,-0.1285,-0.1363,-0.134,-0.1343,-0.142,-0.1422,-0.1355,-0.1345,-0.1335,-0.1302,-0.1296,-0.1292,-0.1289,-0.1179,-0.1179,-0.1178,0,0,0,0,0,0,-0.0944,-0.0971,-0.1292,-0.1291,-0.13,-0.125,-0.1274,-0.1228,-0.1334,-0.1376,-0.1382,-0.1421,-0.1337,-0.1347,-0.1339,-0.1268,-0.1301,-0.1297,-0.1294,-0.1292,-0.1179,-0.1179,0,0,0,0,0,0,-0.0955,-0.0979,-0.1287,-0.1294,-0.1303,-0.1409,-0.1201,-0.1351,-0.1434,-0.137,-0.1435,-0.1435,-0.1336,-0.1331,-0.1342,-0.1274,-0.1269,-0.1301,-0.1298,-0.1296,-0.1295,0,0,0,0,0,0,0,-0.0964,-0.0811,-0.1246,-0.1298,-0.1305,-0.1397,-0.1398,-0.1399,-0.1434,-0.1434,-0.1434,-0.1435,-0.1325,-0.1321,-0.1316,-0.1279,0,0,-0.1301,-0.1299,0,0,0,0,0,0,0,0,-0.08,-0.0808,-0.1246,-0.1249,-0.1253,-0.1397,-0.1398,-0.1399,-0.1434,-0.1434,-0.1434,-0.1435,-0.1324,-0.132,-0.1316,0,0,0,0,0,0,0,0,0,0,0,0,0,0,0,-0.1247,-0.1249,0,-0.1397,-0.1398,-0.1398,-0.1434,-0.1434,-0.1434,-0.1435,-0.1323,-0.132,-0.1317,0,0,0,0,0,0,0,0,0,0,0,0,0,0,0,0,0,0,0,0,0,0,0,0,0,0,0,0,0,0,0,0,0,0,0,0,0,0,0,0,0,0,0,0,0,0,0,0,0,0,0,0,0,0,0,0,0,0,0,0,0,0,0,0,0,0,0,0,0]}],[{"header":{"parameterUnit":"kt","parameterCategory":2,"dx":1,"dy":1,"la1":30.253999710083008,"la2":30.299108505249023,"lo1":-89.0895004272461,"lo2":-89.04439544677734,"nx":28,"ny":28,"refTime":"2022-10-12T21:00:00:Z","depth":"0","parameterNumber":3,"parameterNumberName":"V-component_of_CURRENTS"},"data":[-0.2546,-0.2534,-0.2541,-0.2556,-0.2557,-0.255,-0.2541,-0.2556,-0.2565,-0.2569,-0.2503,-0.2437,-0.1866,-0.106,-0.0591,-0.0537,-0.039,-0.0368,-0.0282,-0.0379,-0.0386,-0.0393,-0.039,-0.0314,-0.0314,-0.0149,-0.0146,-0.0144,-0.2573,-0.256,-0.2552,-0.2533,-0.2539,-0.2517,-0.2472,-0.246,-0.2443,-0.2408,-0.2333,-0.2106,-0.1826,-0.1499,-0.1117,-0.0881,-0.0844,-0.0709,-0.06,-0.0631,-0.0862,-0.0884,-0.0912,-0.0912,-0.0912,-0.0912,-0.0912,-0.0913,-0.2592,-0.2579,-0.2552,-0.2546,-0.2524,-0.25,-0.246,-0.2406,-0.2336,-0.2223,-0.2102,-0.1984,-0.1701,-0.1426,-0.127,-0.0998,-0.0973,-0.0887,-0.0782,-0.0719,-0.0752,-0.1051,-0.1071,-0.107,-0.1069,-0.1068,-0.1068,0,-0.2599,-0.259,-0.2544,-0.2537,-0.2503,-0.2443,-0.236,-0.2331,-0.2146,-0.2058,-0.1929,-0.1808,-0.1568,-0.1421,-0.1201,-0.1089,-0.0822,-0.0913,-0.0746,-0.0745,-0.0698,-0.0694,-0.0934,-0.0966,-0.0964,-0.0963,-0.0962,-0.0962,-0.2596,-0.2586,-0.2516,-0.25,-0.2454,-0.2385,-0.2321,-0.2163,-0.2084,-0.1857,-0.1807,-0.1612,-0.1465,-0.1221,-0.1077,-0.0926,-0.078,-0.0877,-0.0882,-0.0759,-0.0632,-0.0561,-0.0582,-0.0945,-0.0947,-0.0949,-0.095,0,-0.259,-0.2544,-0.2492,-0.2387,-0.2361,-0.232,-0.2165,-0.2089,-0.1938,-0.1797,-0.1741,-0.1497,-0.1341,-0.1143,-0.0968,-0.0889,-0.0738,-0.0766,-0.086,-0.0844,-0.0733,-0.0641,-0.0531,-0.0552,-0.0773,-0.0774,-0.0775,0,-0.2541,-0.2498,-0.2423,-0.2381,-0.2333,-0.2196,-0.2103,-0.197,-0.1805,-0.1693,-0.1498,-0.1399,-0.1179,-0.1054,-0.0948,-0.0845,-0.0815,-0.0784,-0.0754,-0.0813,-0.0821,-0.0667,-0.0572,-0.0714,-0.0715,-0.0715,-0.0715,0,-0.2505,-0.2408,-0.2371,-0.2318,-0.2148,-0.2103,-0.1998,-0.1801,-0.1696,-0.1506,-0.1425,-0.1262,-0.1168,-0.1073,-0.0918,-0.0908,-0.079,-0.075,-0.0752,-0.0754,-0.0779,-0.0784,-0.069,-0.0715,-0.0715,-0.0716,-0.0716,0,-0.2421,-0.2376,-0.2315,-0.2181,-0.214,-0.2062,-0.1881,-0.1758,-0.1551,-0.1442,-0.1315,-0.1181,-0.1069,-0.1031,-0.0892,-0.0903,-0.0852,-0.0785,-0.0781,-0.0792,-0.074,-0.0781,-0.0837,-0.0694,-0.0721,-0.0721,-0.0722,0,-0.2404,-0.234,-0.2243,-0.2152,-0.2088,-0.1915,-0.1815,-0.164,-0.1488,-0.1347,-0.1213,-0.1085,-0.1021,-0.0965,-0.0925,-0.0805,-0.0798,-0.0814,-0.0702,-0.0699,-0.0738,-0.0784,-0.0855,-0.0836,-0.0724,-0.0724,-0.0724,0,-0.2368,-0.2234,-0.2223,-0.2174,-0.1979,-0.1874,-0.1765,-0.1573,-0.1491,-0.1316,-0.1204,-0.1067,-0.0994,-0.0928,-0.0834,-0.0802,-0.08,-0.076,-0.0756,-0.0753,-0.0739,-0.0782,-0.0784,-0.0759,-0.0759,-0.0759,-0.0726,0,-0.2241,-0.2204,-0.2192,-0.2057,-0.1953,-0.1861,-0.1649,-0.1555,-0.1425,-0.1265,-0.1143,-0.1008,-0.0876,-0.0848,-0.0772,-0.0741,-0.0723,-0.0684,-0.0652,-0.0685,-0.0666,-0.0665,-0.0657,-0.0656,-0.0654,-0.0653,0,0,-0.2221,-0.216,-0.2042,-0.1985,-0.1885,-0.1685,-0.1608,-0.1476,-0.1225,-0.1155,-0.1113,-0.089,-0.0811,-0.0712,-0.0705,-0.0667,-0.0647,-0.067,-0.0671,-0.0673,-0.0675,-0.0659,-0.0659,-0.0651,-0.0651,-0.065,-0.065,0,-0.2134,-0.209,-0.2077,-0.1957,-0.1776,-0.1623,-0.1601,-0.135,-0.1252,-0.112,-0.0998,-0.0923,-0.0785,-0.0694,-0.0636,-0.0651,-0.0607,-0.0643,-0.0697,-0.0661,-0.0665,-0.0668,-0.0653,-0.0655,-0.0647,-0.0647,-0.0647,0,-0.2055,-0.1952,-0.1927,-0.1758,-0.1628,-0.1516,-0.137,-0.1248,-0.1145,-0.1004,-0.0887,-0.0803,-0.0693,-0.0628,-0.0606,-0.0589,-0.0569,-0.0568,-0.0574,-0.0583,-0.0543,-0.0548,-0.0553,-0.0495,-0.0494,-0.0494,0,0,-0.1998,-0.1971,-0.1738,-0.1714,-0.1651,-0.1422,-0.1335,-0.1205,-0.1047,-0.0993,-0.0875,-0.0779,-0.0696,-0.0659,-0.0583,-0.0549,-0.052,-0.0553,-0.056,-0.0566,-0.0578,-0.0541,-0.0546,-0.0493,-0.0493,-0.0493,0,0,-0.1933,-0.1725,-0.1669,-0.1632,-0.1463,-0.1191,-0.1165,-0.1039,-0.0926,-0.0929,-0.0785,-0.0757,-0.0705,-0.0654,-0.0654,-0.0584,-0.0551,-0.0549,-0.0617,-0.0625,-0.0632,-0.0661,-0.0578,0,0,0,0,0,-0.1727,-0.1753,-0.1706,-0.167,-0.1422,-0.123,-0.1189,-0.1015,-0.0965,-0.0947,-0.0831,-0.0791,-0.0616,-0.0612,-0.0594,-0.0609,-0.0484,-0.0486,-0.0487,-0.0566,-0.0575,-0.0582,0,0,0,0,0,0,-0.1711,-0.1672,-0.1701,-0.1445,-0.1384,-0.123,-0.1113,-0.1066,-0.0964,-0.0947,-0.0806,-0.0786,-0.0694,-0.0617,-0.0602,-0.0618,-0.0583,-0.0485,-0.0486,-0.0488,-0.0569,-0.0576,-0.0583,0,0,0,0,0,-0.1697,-0.1665,-0.1338,-0.144,-0.1388,-0.1147,-0.1114,-0.1073,-0.1002,-0.0839,-0.0812,-0.0878,-0.0696,-0.0678,-0.0608,-0.0627,-0.0594,-0.0588,-0.0486,-0.0487,-0.0488,-0.0572,0,0,0,0,0,0,-0.1686,-0.1621,-0.1321,-0.1294,-0.1442,-0.1152,-0.1111,-0.1081,-0.09,-0.0867,-0.0907,-0.0897,-0.0698,-0.0683,-0.0669,-0.0634,-0.0602,-0.0596,-0.0593,-0.0487,-0.0487,-0.0488,0,0,0,0,0,0,-0.1635,-0.1603,-0.1308,-0.132,-0.1293,-0.1157,-0.1121,-0.1069,-0.0906,-0.0983,-0.0964,-0.0906,-0.0759,-0.0687,-0.0676,-0.0595,-0.0608,-0.0603,-0.0599,-0.0597,-0.0487,-0.0488,0,0,0,0,0,0,-0.1616,-0.1587,-0.1327,-0.1306,-0.1283,-0.0976,-0.1111,-0.0901,-0.0818,-0.0999,-0.0815,-0.0814,-0.0769,-0.0752,-0.0681,-0.0606,-0.0598,-0.0608,-0.0604,-0.0602,-0.06,0,0,0,0,0,0,0,-0.16,-0.1862,-0.147,-0.1295,-0.1274,-0.1044,-0.1038,-0.1031,-0.0818,-0.0817,-0.0815,-0.0814,-0.0639,-0.0633,-0.0627,-0.0614,0,0,-0.0609,-0.0606,0,0,0,0,0,0,0,0,-0.1867,-0.1863,-0.147,-0.1463,-0.1457,-0.1043,-0.1038,-0.1033,-0.0818,-0.0817,-0.0816,-0.0815,-0.0637,-0.0633,-0.0628,0,0,0,0,0,0,0,0,0,0,0,0,0,0,0,-0.1469,-0.1464,0,-0.1042,-0.1038,-0.1034,-0.0817,-0.0817,-0.0816,-0.0815,-0.0636,-0.0632,-0.0628,0,0,0,0,0,0,0,0,0,0,0,0,0,0,0,0,0,0,0,0,0,0,0,0,0,0,0,0,0,0,0,0,0,0,0,0,0,0,0,0,0,0,0,0,0,0,0,0,0,0,0,0,0,0,0,0,0,0,0,0,0,0,0,0,0,0,0,0,0]}]],[[{"header":{"parameterUnit":"kt","parameterCategory":2,"dx":1,"dy":1,"la1":30.253999710083008,"la2":30.299108505249023,"lo1":-89.0895004272461,"lo2":-89.04439544677734,"nx":28,"ny":28,"refTime":"2022-10-12T21:00:00:Z","depth":"2","parameterNumber":2,"parameterNumberName":"U-component_of_CURRENTS"},"data":[-0.0799,-0.0737,-0.067,-0.0592,-0.0559,-0.0579,-0.0631,-0.0857,-0.1042,-0.1315,-0.1407,-0.1772,-0.1392,-0.1106,-0.0992,-0.0817,-0.0793,-0.0803,-0.1117,-0.0932,-0.0932,-0.0765,-0.0638,0,0,0,0,0,-0.0782,-0.0717,-0.0652,-0.0565,-0.0524,-0.0506,-0.0522,-0.0622,-0.0876,-0.1172,-0.1513,-0.1273,-0.1372,-0.119,-0.097,-0.0948,-0.0862,-0.086,-0.0681,-0.0683,-0.0683,-0.0595,-0.0674,-0.0673,-0.0671,-0.067,0,0,-0.0726,-0.0697,-0.0606,-0.0553,-0.0509,-0.0478,-0.0504,-0.0561,-0.0683,-0.0977,-0.1083,-0.133,-0.1226,-0.1287,-0.123,-0.107,-0.1134,-0.0971,-0.0963,-0.0955,-0.0892,-0.0865,-0.1043,-0.1045,-0.1046,-0.1047,-0.1048,0,-0.066,-0.0628,-0.0568,-0.0505,-0.0481,-0.0434,-0.0425,-0.0444,-0.0452,-0.0597,-0.0819,-0.1007,-0.1153,-0.1182,-0.1219,-0.1216,-0.093,-0.0983,-0.1039,-0.0646,-0.0611,-0.0603,-0.0586,-0.0752,-0.0752,-0.0751,-0.0751,-0.0751,-0.0595,-0.057,-0.0473,-0.0446,-0.042,-0.041,-0.0388,-0.0358,-0.0361,-0.0488,-0.0528,-0.0683,-0.0854,-0.1032,-0.0986,-0.106,-0.0975,-0.0969,-0.0818,-0.0806,-0.0805,-0.0782,-0.076,-0.0748,-0.0749,-0.0749,-0.0749,0,-0.0557,-0.0478,-0.043,-0.0347,-0.0334,-0.0341,-0.0302,-0.0305,-0.0328,-0.0387,-0.041,-0.0463,-0.0597,-0.0602,-0.0706,-0.0688,-0.0775,-0.0825,-0.0691,-0.0696,-0.0749,-0.0731,-0.0974,-0.0978,-0.0981,-0.0984,-0.0987,0,-0.0463,-0.0445,-0.0336,-0.0312,-0.0303,-0.0234,-0.0255,-0.0234,-0.0241,-0.0274,-0.0257,-0.0333,-0.032,-0.0406,-0.041,-0.0542,-0.0546,-0.0552,-0.0577,-0.045,-0.0443,-0.04,-0.0385,-0.0506,-0.0504,-0.0503,-0.0501,0,-0.0431,-0.0326,-0.0286,-0.0253,-0.0147,-0.0161,-0.0135,-0.0117,-0.0107,-0.0149,-0.0182,-0.0206,-0.0258,-0.0297,-0.0326,-0.0263,-0.0463,-0.0384,-0.0499,-0.0504,-0.0455,-0.0452,-0.0499,-0.0499,-0.0499,-0.0498,-0.0498,0,-0.0346,-0.0276,-0.0218,-0.014,-0.0121,-0.0103,-0.009,-0.0056,-0.006,-0.0062,-0.0084,-0.0075,-0.0114,-0.0071,-0.0167,-0.0107,-0.0156,-0.0179,-0.0187,-0.0268,-0.0241,-0.0309,-0.0394,-0.0273,-0.0271,-0.0268,-0.0266,0,-0.0342,-0.0248,-0.0176,-0.0126,-0.0076,-0.0021,0.0001,0.0036,0.0049,0.0031,0.0035,0.0023,0.0082,0.0064,0.0034,0.0013,-0.0056,0.0046,-0.0137,-0.0143,-0.0201,-0.029,-0.0173,-0.0354,-0.0235,-0.0238,-0.0241,0,-0.0332,-0.0184,-0.0185,-0.0157,-0.0056,-0.0002,0.0024,0.0074,0.0058,0.0096,0.0064,0.0111,0.0101,0.0103,0.0125,0.0082,-0.0007,0.0084,0.008,-0.0008,-0.0178,-0.024,-0.0267,-0.0002,-0.0005,-0.0007,-0.0216,0,-0.027,-0.0216,-0.0183,-0.01,-0.0046,0.0005,0.0081,0.0098,0.0111,0.0143,0.0135,0.0165,0.0157,0.0172,0.0203,0.0149,0.0126,0.0146,0.012,0.0096,0.001,-0.0009,0.0214,0.0214,0.0214,0.0214,0,0,-0.0317,-0.0226,-0.0144,-0.0089,-0.0047,0.0025,0.0065,0.0109,0.0186,0.018,0.0185,0.0201,0.0213,0.0206,0.0215,0.023,0.0176,0.0193,0.0125,0.0115,0.0106,0.0022,0.0004,0.0214,0.0214,0.0214,0.0214,0,-0.0278,-0.0213,-0.0171,-0.0106,-0.0015,0.0045,0.0056,0.0155,0.0164,0.02,0.0207,0.0205,0.0226,0.0225,0.0228,0.0233,0.0173,0.0229,0.0191,0.0127,0.0117,0.0109,0.0025,0.0008,0.0214,0.0214,0.0214,0,-0.0286,-0.0205,-0.0174,-0.0043,0.0015,0.0075,0.0111,0.0173,0.0199,0.0214,0.0218,0.0232,0.0239,0.0243,0.0235,0.0224,0.0156,0.0211,0.0211,0.0186,0.0117,0.0108,0.0099,0.0206,0.0206,0.0206,0,0,-0.0273,-0.0216,-0.0089,-0.0026,0.0011,0.0095,0.0136,0.0167,0.0218,0.0224,0.0229,0.0222,0.0234,0.022,0.0232,0.0231,0.0181,0.021,0.0211,0.0211,0.0186,0.0119,0.011,0.0206,0.0206,0.0206,0,0,-0.0262,-0.0127,-0.0113,-0.0023,0.0057,0.0178,0.0199,0.0228,0.0248,0.022,0.023,0.0228,0.0224,0.0216,0.0219,0.0202,0.0199,0.0199,0.0204,0.0205,0.0205,0.0174,0.0196,0,0,0,0,0,-0.0186,-0.0137,-0.0125,-0.0096,0.0062,0.0177,0.0195,0.0235,0.0217,0.0231,0.0232,0.0209,0.0216,0.022,0.0222,0.02,0.0207,0.0207,0.0207,0.0214,0.0215,0.0215,0,0,0,0,0,0,-0.0174,-0.0138,-0.0125,0.0001,0.0038,0.0175,0.017,0.0182,0.0215,0.0212,0.0215,0.021,0.0213,0.0218,0.022,0.0198,0.0195,0.0207,0.0207,0.0207,0.0215,0.0215,0.0215,0,0,0,0,0,-0.0164,-0.0135,0.0106,0.0,0.0032,0.0108,0.0167,0.0177,0.0188,0.0217,0.0214,0.0213,0.0215,0.0213,0.0219,0.0197,0.0194,0.0195,0.0207,0.0207,0.0207,0.0215,0,0,0,0,0,0,-0.0156,-0.0135,0.0113,0.0124,-0.0028,0.0099,0.0119,0.0172,0.0188,0.0191,0.0214,0.0212,0.0217,0.0215,0.0214,0.0197,0.0193,0.0194,0.0194,0.0207,0.0207,0.0207,0,0,0,0,0,0,-0.015,-0.0126,0.0118,0.0081,0.0088,0.009,0.0109,0.0124,0.0183,0.0181,0.0183,0.0212,0.0183,0.0217,0.0216,0.0242,0.0192,0.0193,0.0193,0.0194,0.0207,0.0207,0,0,0,0,0,0,-0.0139,-0.0119,0.0078,0.0083,0.0089,0.0214,0.0098,0.023,0.0238,0.0176,0.0231,0.0228,0.0182,0.0184,0.0218,0.0244,0.0242,0.0192,0.0193,0.0193,0.0193,0,0,0,0,0,0,0,-0.0131,-0.0277,0.0053,0.0085,0.009,0.023,0.0233,0.0235,0.0237,0.0235,0.0232,0.023,0.0189,0.0189,0.019,0.0246,0,0,0.0192,0.0192,0,0,0,0,0,0,0,0,-0.0284,-0.0278,0.0054,0.0056,0.0059,0.0231,0.0232,0.0234,0.0237,0.0235,0.0233,0.0231,0.0189,0.0189,0.019,0,0,0,0,0,0,0,0,0,0,0,0,0,0,0,0.0054,0.0056,0,0.0231,0.0232,0.0234,0.0236,0.0235,0.0233,0.0231,0.0189,0.0189,0.019,0,0,0,0,0,0,0,0,0,0,0,0,0,0,0,0,0,0,0,0,0,0,0,0,0,0,0,0,0,0,0,0,0,0,0,0,0,0,0,0,0,0,0,0,0,0,0,0,0,0,0,0,0,0,0,0,0,0,0,0,0,0,0,0,0,0,0,0,0]}],[{"header":{"parameterUnit":"kt","parameterCategory":2,"dx":1,"dy":1,"la1":30.253999710083008,"la2":30.299108505249023,"lo1":-89.0895004272461,"lo2":-89.04439544677734,"nx":28,"ny":28,"refTime":"2022-10-12T21:00:00:Z","depth":"2","parameterNumber":3,"parameterNumberName":"V-component_of_CURRENTS"},"data":[0.0632,0.062,0.0648,0.0473,0.0369,0.0101,-0.0065,-0.0328,-0.0461,-0.0617,-0.0601,-0.0388,-0.0101,0.0014,0.0213,0.0346,0.0281,0.0345,0.0276,0.0121,0.0105,0.0212,0.0248,0,0,0,0,0,0.0681,0.0716,0.0681,0.0562,0.0444,0.0381,0.0133,-0.0055,-0.0334,-0.0406,-0.0473,-0.0307,-0.0042,0.011,0.034,0.0503,0.0468,0.0441,0.0343,0.0328,0.0315,0.0349,0.0463,0.0464,0.0465,0.0465,0,0,0.0779,0.0779,0.0756,0.0661,0.0557,0.0391,0.0236,0.0064,-0.0132,-0.0354,-0.0292,-0.0283,-0.0121,0.0151,0.0268,0.0349,0.0334,0.0283,0.0273,0.0262,0.0298,0.036,0.0397,0.0397,0.0397,0.0397,0.0397,0,0.0822,0.0822,0.0795,0.0701,0.0595,0.0476,0.0313,0.0216,0.0053,-0.0075,-0.0232,-0.0214,-0.0074,0.0043,0.0206,0.0222,0.0126,0.0158,0.0061,0.0093,0.015,0.0154,0.0153,0.014,0.0138,0.0137,0.0136,0.0135,0.0858,0.0842,0.0769,0.0714,0.0656,0.0532,0.0433,0.0309,0.0202,0.0034,-0.0044,-0.0086,-0.0083,-0.0042,0.0033,0.0109,0.0005,0.0112,0.014,0.0117,0.0122,0.0124,0.0126,0.0119,0.0121,0.0123,0.0124,0,0.0871,0.0848,0.079,0.0699,0.0647,0.0574,0.0414,0.0327,0.0232,0.009,0.0054,-0.0022,-0.0046,-0.0038,-0.0087,-0.0032,-0.0033,-0.0022,0.0012,0.0024,0.0105,0.0111,0.0091,0.0095,0.0098,0.0101,0.0103,0,0.0875,0.0823,0.0768,0.0741,0.0645,0.0581,0.0462,0.0391,0.0272,0.0159,0.013,0.004,0.0019,-0.0021,-0.0023,-0.0006,-0.0084,0.0015,0.0019,0.0016,0.0028,-0.0098,-0.0094,-0.013,-0.013,-0.013,-0.013,0,0.0892,0.0818,0.0782,0.0753,0.0665,0.0603,0.0535,0.0423,0.0348,0.0239,0.018,0.0106,0.0047,0.0019,-0.0005,0.0008,-0.0069,-0.0064,0.0014,0.0024,-0.001,0.0,-0.013,-0.013,-0.013,-0.0129,-0.0129,0,0.0892,0.0861,0.0815,0.0727,0.0701,0.0646,0.0526,0.0468,0.0354,0.0301,0.022,0.0171,0.0097,0.0107,0.0032,0.0057,0.0034,0.0013,0.0011,0.0083,0.0105,0.0108,0.0108,0.0022,0.0023,0.0024,0.0024,0,0.0915,0.0875,0.0849,0.0775,0.0737,0.0678,0.0616,0.0539,0.0471,0.0383,0.0313,0.0218,0.0221,0.0171,0.0137,0.0087,0.0058,0.0088,0.001,0.0009,0.0119,0.0119,0.012,0.0118,0.0036,0.0035,0.0034,0,0.0936,0.0893,0.0877,0.0835,0.0766,0.0735,0.067,0.059,0.0525,0.0461,0.0377,0.0278,0.0244,0.0186,0.0142,0.0103,0.0081,0.01,0.0097,0.0113,0.0012,0.0123,0.0126,0.0058,0.0056,0.0054,0.0043,0,0.0935,0.0902,0.0889,0.083,0.0794,0.0757,0.0704,0.0652,0.0601,0.0551,0.0443,0.0367,0.0261,0.0238,0.0207,0.0127,0.0139,0.0118,0.0101,0.0086,0.0087,0.008,0.015,0.0149,0.0148,0.0148,0,0,0.0938,0.0921,0.0895,0.0863,0.0827,0.0784,0.0749,0.0705,0.0622,0.0573,0.0565,0.0395,0.0324,0.0213,0.0206,0.0174,0.0162,0.0149,0.0098,0.0093,0.0088,0.0087,0.0081,0.0146,0.0146,0.0146,0.0146,0,0.0944,0.0922,0.0905,0.0873,0.0819,0.0789,0.0777,0.0721,0.0673,0.0598,0.0536,0.0459,0.0337,0.0265,0.0215,0.0175,0.0135,0.0153,0.0143,0.0094,0.009,0.0086,0.0085,0.0081,0.0144,0.0144,0.0144,0,0.0937,0.0916,0.0908,0.0875,0.0835,0.0802,0.0781,0.0739,0.0697,0.0625,0.0528,0.0468,0.0373,0.0288,0.0239,0.0229,0.0119,0.0137,0.0139,0.012,0.0068,0.0064,0.006,0.0112,0.0112,0.0112,0,0,0.0929,0.0915,0.0885,0.0874,0.0855,0.0804,0.0777,0.0741,0.068,0.0642,0.056,0.0468,0.0391,0.0331,0.0256,0.0175,0.0148,0.0136,0.0137,0.0139,0.0122,0.0071,0.0066,0.0113,0.0113,0.0113,0,0,0.0928,0.09,0.0876,0.0871,0.0833,0.079,0.0758,0.0729,0.0648,0.0623,0.0536,0.0507,0.0412,0.0355,0.0377,0.0238,0.0228,0.0221,0.0275,0.0276,0.0277,0.0277,0.0319,0,0,0,0,0,0.0908,0.0911,0.089,0.0885,0.0837,0.0808,0.0796,0.0735,0.0707,0.0683,0.06,0.0549,0.0349,0.0367,0.0342,0.0306,0.0124,0.0122,0.012,0.0171,0.0172,0.0174,0,0,0,0,0,0,0.0906,0.0903,0.089,0.0856,0.0844,0.0808,0.0772,0.0755,0.0708,0.0697,0.057,0.0546,0.0484,0.0375,0.0353,0.032,0.0326,0.0123,0.0122,0.012,0.0171,0.0173,0.0174,0,0,0,0,0,0.0904,0.0901,0.0846,0.0854,0.0843,0.0769,0.0771,0.0756,0.0705,0.061,0.0585,0.0659,0.0487,0.046,0.0361,0.0332,0.0341,0.0333,0.0122,0.0121,0.012,0.0172,0,0,0,0,0,0,0.0903,0.0874,0.0841,0.0835,0.0843,0.0767,0.0756,0.0757,0.0617,0.0596,0.0696,0.069,0.0489,0.0468,0.0448,0.034,0.0353,0.0344,0.034,0.0121,0.012,0.0119,0,0,0,0,0,0,0.0876,0.087,0.0838,0.0828,0.0819,0.0766,0.0756,0.068,0.0613,0.0709,0.0701,0.0695,0.0496,0.0474,0.0458,0.0343,0.0362,0.0354,0.0349,0.0345,0.012,0.012,0,0,0,0,0,0,0.0871,0.0866,0.0829,0.0823,0.0815,0.0731,0.0692,0.0629,0.066,0.0714,0.0656,0.0654,0.0502,0.0485,0.0465,0.0357,0.0346,0.0361,0.0356,0.0352,0.035,0,0,0,0,0,0,0,0.0868,0.0926,0.0886,0.0818,0.0811,0.0774,0.0771,0.0769,0.066,0.0658,0.0656,0.0655,0.0405,0.0397,0.0388,0.0369,0,0,0.0362,0.0358,0,0,0,0,0,0,0,0,0.0926,0.0926,0.0886,0.0885,0.0884,0.0773,0.0771,0.0769,0.0659,0.0658,0.0657,0.0655,0.0403,0.0396,0.0389,0,0,0,0,0,0,0,0,0,0,0,0,0,0,0,0.0886,0.0885,0,0.0773,0.0771,0.077,0.0659,0.0658,0.0657,0.0656,0.0401,0.0396,0.039,0,0,0,0,0,0,0,0,0,0,0,0,0,0,0,0,0,0,0,0,0,0,0,0,0,0,0,0,0,0,0,0,0,0,0,0,0,0,0,0,0,0,0,0,0,0,0,0,0,0,0,0,0,0,0,0,0,0,0,0,0,0,0,0,0,0,0,0,0]}]],[[{"header":{"parameterUnit":"kt","parameterCategory":2,"dx":1,"dy":1,"la1":30.253999710083008,"la2":30.299108505249023,"lo1":-89.0895004272461,"lo2":-89.04439544677734,"nx":28,"ny":28,"refTime":"2022-10-12T21:00:00:Z","depth":"4","parameterNumber":2,"parameterNumberName":"U-component_of_CURRENTS"},"data":[-0.078,-0.0791,-0.0796,-0.0704,-0.0672,-0.067,-0.069,-0.0851,-0.0748,-0.1006,-0.0838,-0.1141,-0.0911,-0.111,-0.0839,-0.0849,-0.1286,-0.0941,-0.0939,-0.1777,-0.1829,-0.1875,-0.1881,0,0,0,0,0,-0.0833,-0.0831,-0.0836,-0.0862,-0.086,-0.0899,-0.0985,-0.1138,-0.1405,-0.1193,-0.1445,-0.1178,-0.1082,-0.0967,-0.0861,-0.1018,-0.1367,-0.09,-0.1611,-0.1809,-0.1867,-0.1853,0,0,0,0,0,0,-0.0914,-0.0904,-0.097,-0.1022,-0.1068,-0.1032,-0.1199,-0.1244,-0.1404,-0.1717,-0.1507,-0.1497,-0.1566,-0.1374,-0.129,-0.1292,-0.1368,-0.155,-0.1618,-0.1675,-0.1612,-0.1434,-0.0817,0,0,0,0,0,-0.0965,-0.1053,-0.1085,-0.114,-0.1276,-0.1346,-0.1589,-0.1638,-0.1992,-0.2268,-0.2067,-0.2032,-0.1762,-0.1699,-0.1664,-0.1665,-0.2318,-0.2091,-0.2128,-0.2393,-0.2309,-0.2263,-0.2301,-0.2086,-0.2093,-0.2098,-0.2101,0,-0.1062,-0.1097,-0.1228,-0.1259,-0.1394,-0.1667,-0.1797,-0.2207,-0.2295,-0.2538,-0.2449,-0.2449,-0.2457,-0.2085,-0.2243,-0.2213,-0.2225,-0.2238,-0.252,-0.2405,-0.2338,-0.2363,-0.2384,-0.2147,-0.2144,-0.214,-0.2136,0,-0.1114,-0.1194,-0.1235,-0.1433,-0.1528,-0.1688,-0.2058,-0.2195,-0.2583,-0.2715,-0.2828,-0.2933,-0.2822,-0.2935,-0.2951,-0.2949,-0.2834,-0.2683,-0.3117,-0.3054,-0.2466,-0.2469,-0.2224,-0.2207,-0.2193,-0.218,-0.217,0,-0.1188,-0.1229,-0.1381,-0.1406,-0.1548,-0.1743,-0.2016,-0.2232,-0.2548,-0.2661,-0.2989,-0.2977,-0.331,-0.3269,-0.335,-0.314,-0.3347,-0.3051,-0.2954,-0.3486,-0.3484,-0.3332,-0.3312,-0.3519,-0.3521,-0.3523,-0.3524,0,-0.1222,-0.1298,-0.1358,-0.1379,-0.1515,-0.1698,-0.1875,-0.2179,-0.2355,-0.2716,-0.2815,-0.3117,-0.326,-0.3371,-0.3421,-0.3535,-0.3421,-0.3512,-0.3069,-0.3034,-0.3334,-0.3312,-0.3526,-0.3527,-0.3527,-0.3528,-0.3528,0,-0.1271,-0.1287,-0.1363,-0.1455,-0.1503,-0.1619,-0.1883,-0.2048,-0.235,-0.253,-0.2818,-0.2942,-0.3256,-0.3303,-0.3489,-0.3551,-0.3563,-0.3556,-0.3546,-0.2996,-0.2858,-0.3079,-0.3336,-0.3336,-0.3336,-0.3336,-0.3336,0,-0.1251,-0.1296,-0.1351,-0.1422,-0.1453,-0.1602,-0.1747,-0.1949,-0.2154,-0.2344,-0.2599,-0.282,-0.299,-0.3201,-0.3357,-0.3415,-0.3499,-0.3533,-0.3303,-0.3291,-0.2868,-0.2999,-0.3573,-0.3339,-0.3339,-0.3339,-0.3338,0,-0.1223,-0.1291,-0.1313,-0.1339,-0.1457,-0.1519,-0.1697,-0.189,-0.2046,-0.2254,-0.2437,-0.2763,-0.2911,-0.2999,-0.3183,-0.3312,-0.3476,-0.334,-0.3332,-0.3215,-0.3483,-0.3051,-0.3006,-0.3561,-0.3564,-0.3565,-0.334,0,-0.1176,-0.1232,-0.1275,-0.1346,-0.1422,-0.1509,-0.164,-0.1782,-0.1928,-0.2039,-0.2314,-0.2453,-0.2643,-0.2767,-0.2869,-0.3132,-0.306,-0.3028,-0.293,-0.3144,-0.301,-0.3011,-0.2908,-0.2902,-0.2896,-0.2892,0,0,-0.1133,-0.1184,-0.126,-0.1304,-0.1357,-0.1473,-0.154,-0.1652,-0.1811,-0.1931,-0.1945,-0.2229,-0.2306,-0.2572,-0.2728,-0.2742,-0.2721,-0.2829,-0.3052,-0.3072,-0.3088,-0.2973,-0.298,-0.2882,-0.288,-0.2878,-0.2876,0,-0.1097,-0.117,-0.1223,-0.1274,-0.1397,-0.144,-0.1494,-0.1616,-0.1719,-0.1878,-0.1912,-0.2082,-0.2238,-0.2335,-0.2405,-0.2664,-0.2571,-0.2755,-0.2991,-0.3007,-0.3034,-0.3056,-0.295,-0.296,-0.2863,-0.2864,-0.2864,0,-0.1054,-0.1099,-0.1136,-0.1236,-0.1312,-0.1366,-0.1408,-0.1532,-0.1613,-0.1623,-0.1773,-0.185,-0.1915,-0.2113,-0.2199,-0.2171,-0.2443,-0.2421,-0.2449,-0.2385,-0.2387,-0.242,-0.245,-0.2059,-0.2058,-0.2056,0,0,-0.1031,-0.1083,-0.1162,-0.1234,-0.1282,-0.1372,-0.1432,-0.1484,-0.1572,-0.1622,-0.1675,-0.1762,-0.1855,-0.1962,-0.1978,-0.2202,-0.2082,-0.2332,-0.237,-0.2402,-0.2359,-0.2368,-0.2401,-0.2049,-0.2049,-0.2049,0,0,-0.1014,-0.1085,-0.1119,-0.1193,-0.1275,-0.1342,-0.1411,-0.1461,-0.1569,-0.1607,-0.1613,-0.1628,-0.1786,-0.1793,-0.1706,-0.2024,-0.1853,-0.1872,-0.2086,-0.2132,-0.2169,-0.2102,-0.1614,0,0,0,0,0,-0.1024,-0.1072,-0.1103,-0.1125,-0.1245,-0.1332,-0.1352,-0.1405,-0.1444,-0.1495,-0.1574,-0.1532,-0.175,-0.1672,-0.1689,-0.1878,-0.1964,-0.1979,-0.1993,-0.2307,-0.2356,-0.2398,0,0,0,0,0,0,-0.1033,-0.1056,-0.1102,-0.1166,-0.1195,-0.1329,-0.1311,-0.1327,-0.1437,-0.1442,-0.1523,-0.1531,-0.1512,-0.1661,-0.1677,-0.1859,-0.1608,-0.197,-0.1983,-0.1994,-0.2324,-0.2364,-0.2399,0,0,0,0,0,-0.104,-0.1059,-0.1234,-0.1167,-0.1191,-0.1276,-0.1309,-0.1323,-0.1426,-0.1437,-0.145,-0.1471,-0.1511,-0.1529,-0.167,-0.1854,-0.1597,-0.1603,-0.1978,-0.1988,-0.1997,-0.2344,0,0,0,0,0,0,-0.1045,-0.1073,-0.1241,-0.1251,-0.1152,-0.1271,-0.1289,-0.1319,-0.1415,-0.143,-0.1375,-0.1376,-0.1512,-0.1525,-0.1538,-0.1858,-0.1587,-0.1594,-0.1598,-0.1986,-0.1994,-0.2001,0,0,0,0,0,0,-0.1064,-0.1081,-0.1246,-0.1225,-0.1233,-0.1266,-0.1282,-0.135,-0.1415,-0.1347,-0.1352,-0.1374,-0.1488,-0.1522,-0.1533,-0.1637,-0.158,-0.1586,-0.159,-0.1593,-0.1992,-0.1999,0,0,0,0,0,0,-0.1073,-0.1088,-0.1222,-0.1229,-0.1236,-0.1358,-0.1327,-0.1444,-0.1408,-0.1342,-0.1405,-0.1404,-0.1485,-0.1497,-0.1529,-0.1628,-0.1634,-0.1581,-0.1585,-0.1587,-0.1589,0,0,0,0,0,0,0,-0.108,-0.0959,-0.118,-0.1232,-0.1239,-0.1351,-0.1353,-0.1356,-0.1408,-0.1407,-0.1405,-0.1405,-0.1546,-0.1553,-0.1559,-0.1622,0,0,-0.158,-0.1583,0,0,0,0,0,0,0,0,-0.0955,-0.0958,-0.118,-0.1182,-0.1185,-0.1351,-0.1353,-0.1355,-0.1407,-0.1407,-0.1406,-0.1405,-0.1548,-0.1553,-0.1559,0,0,0,0,0,0,0,0,0,0,0,0,0,0,0,-0.118,-0.1182,0,-0.1351,-0.1353,-0.1355,-0.1407,-0.1407,-0.1406,-0.1405,-0.1549,-0.1554,-0.1558,0,0,0,0,0,0,0,0,0,0,0,0,0,0,0,0,0,0,0,0,0,0,0,0,0,0,0,0,0,0,0,0,0,0,0,0,0,0,0,0,0,0,0,0,0,0,0,0,0,0,0,0,0,0,0,0,0,0,0,0,0,0,0,0,0,0,0,0,0]}],[{"header":{"parameterUnit":"kt","parameterCategory":2,"dx":1,"dy":1,"la1":30.253999710083008,"la2":30.299108505249023,"lo1":-89.0895004272461,"lo2":-89.04439544677734,"nx":28,"ny":28,"refTime":"2022-10-12T21:00:00:Z","depth":"4","parameterNumber":3,"parameterNumberName":"V-component_of_CURRENTS"},"data":[-0.0522,-0.0596,-0.0644,-0.0761,-0.0835,-0.0954,-0.1002,-0.1061,-0.102,-0.1073,-0.0965,-0.0996,-0.0819,-0.0947,-0.0678,-0.0656,-0.0457,-0.0533,-0.0529,-0.0205,-0.0194,-0.0185,-0.031,0,0,0,0,0,-0.0514,-0.0565,-0.0655,-0.077,-0.0871,-0.0928,-0.1035,-0.1088,-0.1168,-0.1123,-0.1129,-0.1043,-0.0887,-0.0816,-0.069,-0.073,-0.0455,-0.0581,-0.0304,-0.0198,-0.0187,-0.0312,0,0,0,0,0,0,-0.0513,-0.0562,-0.0631,-0.0727,-0.0842,-0.0928,-0.1001,-0.1055,-0.1106,-0.1143,-0.1143,-0.1048,-0.0993,-0.0806,-0.0676,-0.0542,-0.046,-0.0336,-0.0317,-0.0305,-0.0426,-0.0497,-0.0537,0,0,0,0,0,-0.05,-0.0532,-0.0603,-0.0702,-0.0805,-0.0925,-0.1038,-0.1068,-0.1149,-0.1181,-0.1137,-0.1041,-0.095,-0.0746,-0.0612,-0.0427,-0.0241,-0.0222,-0.0212,-0.016,-0.019,-0.0189,-0.0191,-0.0142,-0.0141,-0.014,-0.0139,0,-0.0479,-0.0511,-0.0629,-0.0691,-0.0753,-0.0873,-0.097,-0.1046,-0.1095,-0.1145,-0.1144,-0.1043,-0.0961,-0.0719,-0.0567,-0.0326,-0.0291,-0.0194,-0.014,-0.0172,-0.0172,-0.0177,-0.0183,-0.013,-0.013,-0.0131,-0.0132,0,-0.0471,-0.0506,-0.0593,-0.0708,-0.0761,-0.0838,-0.0993,-0.1063,-0.1074,-0.1125,-0.1074,-0.0972,-0.0817,-0.0672,-0.0433,-0.0331,-0.0189,-0.0161,-0.0124,-0.012,-0.016,-0.017,-0.0114,-0.0118,-0.012,-0.0123,-0.0125,0,-0.0461,-0.0525,-0.0594,-0.0635,-0.0757,-0.0832,-0.096,-0.1007,-0.1061,-0.1108,-0.0982,-0.0953,-0.071,-0.0604,-0.0408,-0.0262,-0.0209,-0.0145,-0.0141,-0.0084,-0.0092,-0.0078,-0.0087,-0.0013,-0.0014,-0.0015,-0.0016,0,-0.0434,-0.0524,-0.0591,-0.0627,-0.0753,-0.0831,-0.0904,-0.0996,-0.1054,-0.1014,-0.0997,-0.0861,-0.0753,-0.0577,-0.037,-0.0326,-0.0182,-0.0143,-0.0152,-0.0158,-0.0087,-0.0094,-0.0017,-0.0017,-0.0017,-0.0018,-0.0018,0,-0.0433,-0.0463,-0.0545,-0.0666,-0.0695,-0.077,-0.0904,-0.0971,-0.1019,-0.1006,-0.0934,-0.0866,-0.0712,-0.0624,-0.0406,-0.0414,-0.0275,-0.02,-0.0194,-0.0308,-0.0325,-0.0162,-0.0132,-0.0134,-0.0135,-0.0137,-0.0138,0,-0.0411,-0.0459,-0.0489,-0.0589,-0.0631,-0.0692,-0.0781,-0.0845,-0.087,-0.0902,-0.0835,-0.0814,-0.0693,-0.0606,-0.0508,-0.0406,-0.0309,-0.0371,-0.0224,-0.022,-0.0309,-0.0309,-0.0286,-0.0158,-0.0155,-0.0153,-0.0152,0,-0.0381,-0.0419,-0.0427,-0.0468,-0.0528,-0.0567,-0.0658,-0.0726,-0.0773,-0.0761,-0.0792,-0.0748,-0.0653,-0.0637,-0.0552,-0.046,-0.034,-0.0353,-0.0351,-0.0279,-0.0193,-0.0316,-0.0316,-0.0294,-0.0292,-0.0291,-0.0166,0,-0.0385,-0.0404,-0.0413,-0.0447,-0.0484,-0.0519,-0.0565,-0.0608,-0.0618,-0.0627,-0.0656,-0.0625,-0.06,-0.0587,-0.0521,-0.0464,-0.0414,-0.0426,-0.0358,-0.0359,-0.0308,-0.0297,-0.0427,-0.0427,-0.0427,-0.0427,0,0,-0.0366,-0.0367,-0.0351,-0.0374,-0.0404,-0.0401,-0.0449,-0.0476,-0.0511,-0.0533,-0.0507,-0.0532,-0.0521,-0.052,-0.0492,-0.0513,-0.0443,-0.04,-0.0377,-0.0372,-0.0367,-0.0316,-0.0306,-0.0428,-0.0428,-0.0428,-0.0428,0,-0.0356,-0.0336,-0.0341,-0.0359,-0.0371,-0.0389,-0.0395,-0.0415,-0.0435,-0.0478,-0.0477,-0.0472,-0.0484,-0.0478,-0.0472,-0.0509,-0.0425,-0.0487,-0.0419,-0.038,-0.0375,-0.0369,-0.0319,-0.0309,-0.0429,-0.0428,-0.0428,0,-0.0343,-0.0332,-0.033,-0.0331,-0.0335,-0.0372,-0.034,-0.0357,-0.0402,-0.0364,-0.0422,-0.0418,-0.0418,-0.0432,-0.0438,-0.0396,-0.0367,-0.0397,-0.0398,-0.0388,-0.0347,-0.0342,-0.0338,-0.039,-0.039,-0.0389,0,0,-0.0338,-0.0329,-0.0334,-0.0331,-0.0335,-0.0337,-0.0342,-0.0348,-0.0361,-0.0366,-0.0373,-0.0379,-0.0402,-0.0378,-0.0423,-0.0401,-0.0373,-0.039,-0.0392,-0.0393,-0.0385,-0.0345,-0.0341,-0.0388,-0.0388,-0.0388,0,0,-0.0342,-0.0332,-0.0323,-0.0318,-0.0331,-0.0338,-0.0343,-0.0339,-0.0356,-0.0355,-0.0346,-0.0348,-0.0389,-0.0367,-0.0352,-0.0363,-0.036,-0.0363,-0.0343,-0.0345,-0.0347,-0.0331,-0.0318,0,0,0,0,0,-0.0335,-0.0333,-0.0325,-0.0323,-0.0319,-0.034,-0.0341,-0.0339,-0.0323,-0.0336,-0.0346,-0.0321,-0.0365,-0.0352,-0.0351,-0.0332,-0.037,-0.0373,-0.0376,-0.0354,-0.0356,-0.0359,0,0,0,0,0,0,-0.0335,-0.0332,-0.0325,-0.0329,-0.0328,-0.0339,-0.0322,-0.0321,-0.0323,-0.0322,-0.0322,-0.0321,-0.0319,-0.0349,-0.035,-0.0331,-0.0318,-0.0371,-0.0374,-0.0376,-0.0355,-0.0357,-0.0359,0,0,0,0,0,-0.0334,-0.0332,-0.0322,-0.033,-0.0329,-0.0327,-0.0321,-0.0321,-0.0323,-0.032,-0.032,-0.032,-0.0319,-0.0319,-0.0349,-0.0331,-0.0317,-0.0318,-0.0373,-0.0375,-0.0377,-0.0356,0,0,0,0,0,0,-0.0334,-0.0337,-0.0323,-0.0323,-0.0325,-0.0328,-0.0326,-0.0321,-0.0321,-0.0321,-0.0319,-0.0318,-0.0319,-0.0319,-0.032,-0.0331,-0.0317,-0.0317,-0.0317,-0.0375,-0.0376,-0.0378,0,0,0,0,0,0,-0.0338,-0.0337,-0.0323,-0.0317,-0.0316,-0.0328,-0.0327,-0.0331,-0.0321,-0.032,-0.0319,-0.0318,-0.0316,-0.032,-0.032,-0.0327,-0.0317,-0.0317,-0.0317,-0.0317,-0.0376,-0.0377,0,0,0,0,0,0,-0.0338,-0.0337,-0.0317,-0.0317,-0.0316,-0.0321,-0.0332,-0.0326,-0.032,-0.032,-0.0319,-0.0319,-0.0316,-0.0316,-0.032,-0.0327,-0.0327,-0.0317,-0.0317,-0.0317,-0.0317,0,0,0,0,0,0,0,-0.0338,-0.0339,-0.0319,-0.0316,-0.0316,-0.0326,-0.0326,-0.0326,-0.032,-0.032,-0.0319,-0.0319,-0.0315,-0.0315,-0.0316,-0.0327,0,0,-0.0317,-0.0317,0,0,0,0,0,0,0,0,-0.034,-0.0339,-0.0319,-0.0319,-0.0319,-0.0326,-0.0326,-0.0326,-0.032,-0.032,-0.0319,-0.0319,-0.0315,-0.0315,-0.0316,0,0,0,0,0,0,0,0,0,0,0,0,0,0,0,-0.0319,-0.0319,0,-0.0326,-0.0326,-0.0326,-0.032,-0.032,-0.032,-0.0319,-0.0315,-0.0315,-0.0316,0,0,0,0,0,0,0,0,0,0,0,0,0,0,0,0,0,0,0,0,0,0,0,0,0,0,0,0,0,0,0,0,0,0,0,0,0,0,0,0,0,0,0,0,0,0,0,0,0,0,0,0,0,0,0,0,0,0,0,0,0,0,0,0,0,0,0,0,0]}]]]